Location: Vesunti
(61.5000°N, 22.8333°E)
Time: 18:47:10
(UTC+00:00)

Cosmos 1484 Rocket - Pass Details

Date: 17 February 2020
Orbit: 507 x 559 km, 97.4° (Epoch: 29 March)

Event Time Altitude Azimuth Distance (km) Brightness Sun altitude
Rises 03:31:03 0° 17° (NNE) 2,700 6.7 -19.2°
Reaches altitude 10° 03:33:11 10° 22° (NNE) 1,813 5.8 -19.0°
Maximum altitude 03:37:04 59° 102° (ESE) 639 3.4 -18.5°
Drops below altitude 10° 03:40:59 10° 183° (S) 1,827 5.4 -18.0°
Sets 03:43:08 0° 187° (S) 2,724 6.2 -17.8°
